Tracking 29594 objects as of 20-Sep-2024
HD Live streaming from Space Station
objects crossing your sky now

ALOS DEB

Track ALOS DEB now!
10-day predictions


NORAD ID: 35418
Int'l Code: 2006-002Z
Perigee: 645.6 km
Apogee: 650.0 km
Inclination: 98.1 °
Period: 97.5 minutes
Semi major axis: 7018 km
RCS: 0.0242 m2 (small)
Launch date: January 24, 2006
Source: Japan (JPN)
Launch site: TANEGASHIMA SPACE CENTER (TNSTA)

Note: This is SATELLITE DEBRIS
Your satellite tracking list
Your tracking list is empty




NASA's NSSDC Master Catalog

Two Line Element Set (TLE):
1 35418U 06002Z   24263.79898455  .00010973  00000-0  15832-2 0  9992
2 35418  98.1259 228.1388 0003121  97.3821 308.3670 14.76428256939986
Source of the keplerian elements: AFSPC